Hourly Data Report for September 09, 2017

All times are specified in Local Standard Time (LST). Add 1 hour to adjust for Daylight Saving Time where and when it is observed.

PANGNIRTUNG
NUNAVUT

66°08'36.300" N
65°42'40.500" W
22.60 m
2403049
71826
WXP

Download Data

Hourly Data (September 2017)
Hourly Data Report for September 9, 2017
Temp Definition
°C
Dew Point Temp Definition
°C
Rel Hum Definition
%
Wind Dir Definition
10's deg

Wind Spd Definition
km/h
Visibility Definition
km
Stn Press Definition
kPa
Hmdx Definition


Wind Chill Definition


Weather Definition


TIME
00:00 3.2 0.5 83 13 17   99.52     LegendNANA
01:00 2.9 1.0 87 13 12   99.36     LegendNANA
02:00 1.5 0.9 96 10 5   99.24     LegendNANA
03:00 1.4 1.2 98 10 7   99.04     LegendNANA
04:00 1.8 1.5 98 8 13   98.85     LegendNANA
05:00 3.1 2.2 94 6 12   98.68     LegendNANA
06:00 4.2 3.3 94 11 22   98.52     LegendNANA
07:00 4.6 3.6 93 15 24   98.34     LegendNANA
08:00 4.7 3.7 93 13 16   98.26     LegendNANA
09:00 6.0 5.1 94 12 18   98.13     LegendNANA
10:00 6.4 5.5 94 11 18   98.07     LegendNANA
11:00 6.6 5.9 95 14 12   97.99     LegendNANA
12:00 7.1 6.2 94 17 31   97.88     LegendNANA
13:00 7.1 5.1 87 17 26   97.83     LegendNANA
14:00 8.1 6.3 88 22 21   97.81     LegendNANA
15:00 7.8 6.4 91 24 27   97.85     LegendNANA
16:00 5.1 3.9 92 24 34   97.97     LegendNANA
17:00 3.3 2.2 93 24 36   98.11     LegendNANA
18:00 2.9 1.9 93 24 39   98.19     LegendNANA
19:00 2.7 1.5 91 24 34   98.32     LegendNANA
20:00 3.1 1.3 88 26 31   98.39     LegendNANA
21:00 3.1 1.0 86 25 31   98.49     LegendNANA
22:00 2.9 0.2 83 26 30   98.61     LegendNANA
23:00 2.7 0.2 84 26 29   98.74     LegendNANA

Notes on Data Quality.

Legend

  • E = Estimated
  • M = Missing
  • NA = Not Available
  • ‡ = Partner data that is not subject to review by the National Climate Archives
Date modified: